Temp
-7 -7 -7 -7 -7 -7 -7 -7 -7 -7 -7 -7 -7 -7 -7 -8 -7 -7 -7 -7 -7 -7 -7 -7 -7 -7 -7 -7 -7 -7 -7 -7 -7 -7 -6 -6 -6 -6 -6 -5 -5 -5 -5
-7 -7 -7 -7 -7 -7 -7 -7 -7 -8 -8 -8 -8 -8 -8 -8 -8 -8 -8 -8 -9 -8 -8 -8 -8 -8 -8 -8 -8 -8 -7 -7 -7 -7 -7 -7 -7 -7 -7 -7 -7 -7 -6
-7 -7 -7 -7 -7 -7 -7 -8 -8 -8 -8 -8 -8 -8 -8 -8 -8 -8 -8 -8 -9 -9 -8 -8 -7 -8 -8 -8 -8 -8 -8 -8 -8 -8 -7 -7 -7 -7 -8 -8 -8 -8 -7
-8 -8 -8 -8 -8 -8 -8 -8 -8 -8 -8 -8 -8 -8 -8 -9 -9 -9 -8 -9 -9 -9 -9 -9 -9 -8 -8 -8 -8 -8 -7 -8 -8 -8 -8 -9 -9 -9 -8 -8 -8 -8 -8
-8 -8 -8 -8 -9 -9 -9 -9 -9 -9 -9 -8 -8 -9 -9 -9 -9 -9 -9 -9 -9 -10 -10 -9 -9 -8 -8 -8 -8 -8 -8 -9 -9 -9 -9 -9 -9 -9 -9 -8 -8 -8 -8
-8 -8 -8 -9 -9 -9 -9 -9 -9 -9 -10 -10 -8 -9 -9 -10 -10 -9 -9 -9 -9 -9 -9 -9 -9 -9 -9 -9 -9 -9 -9 -9 -9 -9 -9 -9 -9 -9 -9 -9 -9 -10 -10
-8 -9 -9 -9 -9 -9 -9 -9 -9 -9 -10 -9 -9 -9 -10 -10 -9 -10 -9 -9 -9 -9 -9 -9 -9 -9 -9 -9 -9 -9 -9 -9 -9 -9 -9 -9 -9 -9 -10 -10 -11 -11 -11
-8 -9 -9 -9 -9 -9 -9 -10 -9 -9 -9 -9 -8 -9 -9 -9 -9 -9 -9 -9 -9 -9 -9 -9 -9 -9 -10 -9 -9 -9 -9 -9 -9 -9 -10 -10 -10 -11 -11 -11 -11 -11 -11
-9 -9 -8 -8 -8 -9 -8 -5 -5 -8 -9 -8 -8 -9 -8 -8 -8 -9 -9 -9 -9 -10 -9 -9 -9 -9 -9 -9 -9 -9 -9 -9 -10 -11 -11 -11 -12 -11 -11 -11 -12 -12 -11
-8 -9 -9 -9 -9 -9 -9 -8 -8 -8 -9 -8 -7 -7 -8 -8 -8 -9 -9 -9 -9 -10 -9 -9 -10 -9 -9 -9 -9 -9 -10 -10 -11 -11 -11 -12 -12 -12 -12 -12 -12 -11 -11
-9 -9 -9 -9 -8 -9 -10 -7 -7 -9 -8 -7 -7 -7 -8 -8 -8 -9 -9 -10 -9 -10 -9 -9 -9 -9 -9 -9 -9 -9 -10 -12 -12 -12 -12 -12 -12 -12 -11 -12 -12 -12 -12
-9 -9 -8 -8 -8 -9 -9 -8 -8 -9 -9 -9 -8 -8 -9 -9 -9 -9 -9 -9 -9 -10 -9 -9 -9 -9 -9 -9 -10 -11 -12 -12 -12 -12 -12 -12 -12 -12 -12 -12 -12 -12 -11
-9 -9 -8 -9 -9 -8 -9 -8 -9 -10 -9 -9 -9 -8 -8 -9 -9 -9 -9 -9 -9 -9 -9 -9 -9 -9 -9 -9 -10 -11 -12 -12 -12 -12 -13 -13 -12 -12 -12 -12 -11 -11 -11
-9 -9 -9 -9 -9 -9 -9 -8 -7 -9 -9 -9 -9 -9 -9 -9 -9 -9 -9 -9 -9 -9 -9 -9 -9 -9 -9 -10 -11 -11 -12 -12 -12 -12 -12 -12 -12 -12 -12 -12 -11 -11 -12
-9 -9 -9 -9 -8 -9 -9 -8 -8 -8 -9 -9 -9 -10 -10 -9 -9 -9 -10 -9 -9 -9 -9 -9 -9 -9 -10 -10 -11 -11 -11 -12 -12 -12 -12 -12 -12 -12 -12 -12 -12 -12 -12
-9 -9 -9 -9 -9 -9 -9 -9 -9 -9 -9 -10 -10 -10 -10 -9 -10 -10 -10 -10 -10 -10 -9 -9 -9 -9 -10 -11 -11 -11 -11 -12 -12 -12 -12 -12 -12 -12 -12 -13 -13 -13 -13
-9 -9 -9 -9 -9 -9 -9 -10 -10 -10 -10 -10 -10 -10 -10 -10 -10 -10 -10 -10 -10 -9 -9 -9 -10 -10 -10 -11 -11 -11 -12 -12 -13 -13 -12 -12 -12 -12 -13 -13 -13 -13 -13
-10 -9 -9 -9 -9 -9 -9 -10 -10 -10 -10 -11 -11 -10 -10 -10 -10 -10 -10 -10 -10 -10 -9 -9 -10 -10 -10 -11 -11 -11 -12 -12 -13 -13 -13 -13 -13 -13 -13 -13 -13 -13 -13
-9 -9 -9 -9 -9 -10 -10 -10 -10 -10 -11 -11 -11 -10 -10 -10 -10 -10 -10 -10 -10 -10 -10 -10 -10 -10 -10 -11 -11 -12 -12 -12 -13 -13 -13 -13 -13 -13 -13 -13 -13 -13 -14
-9 -9 -9 -9 -10 -10 -10 -10 -10 -11 -11 -11 -11 -10 -10 -11 -10 -10 -10 -10 -10 -10 -10 -10 -10 -10 -10 -11 -11 -12 -12 -13 -13 -13 -13 -13 -13 -14 -14 -14 -14 -14 -14
-9 -9 -9 -9 -10 -10 -10 -10 -10 -11 -11 -11 -11 -11 -11 -11 -10 -11 -10 -10 -10 -10 -10 -10 -10 -10 -11 -11 -11 -12 -12 -13 -13 -13 -13 -14 -14 -14 -14 -14 -14 -14 -14
-10 -10 -10 -10 -10 -10 -10 -10 -11 -11 -11 -11 -11 -11 -11 -11 -11 -11 -10 -10 -10 -10 -11 -10 -10 -11 -11 -11 -12 -12 -13 -13 -13 -14 -14 -14 -14 -14 -14 -14 -14 -14 -14
-11 -10 -10 -10 -11 -11 -11 -11 -11 -11 -11 -11 -11 -11 -11 -11 -11 -11 -10 -10 -11 -11 -11 -11 -11 -11 -11 -12 -12 -12 -13 -13 -13 -14 -14 -14 -14 -14 -14 -14 -14 -14 -14
-11 -11 -11 -11 -11 -11 -11 -11 -11 -12 -11 -11 -11 -11 -11 -11 -11 -11 -10 -11 -11 -11 -11 -11 -11 -11 -12 -12 -12 -12 -13 -13 -13 -14 -14 -14 -14 -14 -14 -14 -14 -14 -14
-11 -11 -11 -11 -11 -12 -11 -12 -11 -11 -11 -11 -12 -12 -11 -11 -11 -10 -11 -11 -11 -11 -12 -12 -12 -12 -12 -12 -13 -13 -13 -14 -14 -14 -15 -14 -15 -14 -14 -14 -14 -14 -14
-11 -11 -11 -11 -11 -12 -11 -11 -11 -11 -11 -12 -12 -12 -11 -11 -11 -11 -11 -11 -12 -12 -12 -12 -12 -13 -13 -13 -13 -13 -14 -14 -14 -14 -15 -15 -15 -15 -15 -14 -14 -14 -14
Height
5905 5905 5905 5905 5905 5905 5904 5904 5903 5903 5902 5901 5900 5899 5896 5893 5891 5888 5885 5883 5881 5878 5875 5872 5868 5865 5862 5859 5858 5856 5854 5852 5850 5849 5848 5846 5846 5845 5844 5843 5841 5839 5836
5902 5903 5903 5903 5903 5903 5903 5902 5902 5900 5899 5898 5896 5894 5891 5889 5887 5884 5881 5878 5875 5872 5868 5864 5860 5857 5855 5852 5850 5847 5845 5843 5842 5841 5839 5838 5835 5833 5831 5830 5828 5827 5825
5901 5901 5901 5901 5900 5901 5900 5899 5899 5898 5896 5895 5892 5890 5888 5884 5882 5880 5876 5873 5870 5866 5862 5858 5853 5849 5847 5844 5841 5839 5837 5834 5832 5830 5829 5826 5824 5821 5820 5818 5816 5815 5815
5898 5899 5899 5898 5898 5897 5897 5897 5897 5897 5895 5891 5888 5883 5881 5879 5876 5873 5869 5867 5864 5861 5857 5852 5848 5844 5841 5838 5834 5832 5828 5825 5822 5820 5817 5814 5812 5809 5807 5806 5804 5803 5801
5896 5895 5895 5894 5895 5895 5895 5893 5892 5889 5888 5886 5882 5879 5874 5871 5869 5868 5865 5862 5859 5855 5851 5846 5842 5837 5833 5828 5824 5822 5818 5814 5811 5808 5805 5803 5801 5797 5795 5792 5789 5787 5786
5894 5894 5894 5895 5895 5895 5893 5891 5889 5886 5884 5878 5874 5870 5866 5864 5863 5860 5856 5854 5853 5848 5844 5838 5833 5828 5824 5818 5815 5811 5809 5805 5801 5799 5796 5791 5787 5784 5781 5777 5774 5771 5769
5890 5891 5892 5892 5891 5889 5887 5884 5880 5875 5870 5865 5865 5862 5857 5855 5854 5852 5849 5846 5842 5840 5837 5832 5828 5823 5818 5814 5810 5805 5801 5797 5792 5788 5783 5780 5775 5771 5767 5765 5763 5760 5758
5887 5886 5885 5883 5880 5876 5874 5872 5865 5863 5857 5850 5848 5849 5847 5847 5846 5843 5840 5838 5836 5833 5830 5825 5820 5815 5810 5805 5801 5796 5792 5786 5781 5776 5770 5766 5762 5760 5758 5755 5753 5750 5748
5882 5881 5879 5878 5873 5871 5865 5830 5819 5847 5847 5843 5841 5839 5838 5837 5837 5834 5832 5830 5828 5826 5821 5817 5813 5807 5802 5797 5791 5786 5782 5776 5770 5765 5761 5756 5753 5750 5748 5744 5742 5740 5738
5876 5875 5873 5871 5866 5858 5854 5828 5818 5833 5838 5838 5834 5832 5831 5831 5828 5825 5825 5823 5819 5818 5814 5809 5804 5800 5795 5790 5784 5778 5771 5765 5760 5756 5752 5747 5744 5741 5739 5737 5734 5731 5729
5870 5869 5867 5863 5855 5846 5837 5819 5811 5822 5829 5830 5827 5825 5822 5824 5821 5819 5815 5814 5813 5812 5807 5803 5799 5795 5789 5783 5775 5768 5761 5755 5750 5745 5741 5738 5735 5733 5731 5730 5727 5724 5721
5860 5858 5856 5854 5852 5845 5838 5829 5822 5821 5823 5822 5823 5821 5822 5818 5815 5812 5810 5809 5807 5804 5800 5796 5792 5787 5782 5774 5767 5761 5755 5749 5743 5739 5734 5730 5727 5725 5722 5720 5718 5716 5712
5852 5849 5846 5842 5843 5839 5835 5831 5823 5821 5818 5819 5818 5816 5814 5812 5810 5808 5806 5804 5800 5797 5793 5789 5784 5779 5772 5766 5760 5755 5748 5742 5738 5733 5728 5724 5721 5719 5715 5712 5709 5707 5703
5843 5841 5838 5837 5837 5834 5831 5828 5822 5816 5815 5814 5812 5810 5808 5807 5804 5802 5800 5797 5793 5791 5789 5784 5780 5774 5767 5760 5753 5747 5742 5736 5732 5727 5722 5719 5715 5712 5709 5706 5703 5699 5696
5833 5833 5829 5825 5827 5825 5822 5820 5817 5815 5813 5810 5808 5805 5803 5801 5799 5796 5793 5790 5789 5786 5782 5778 5772 5768 5761 5754 5746 5741 5736 5731 5726 5721 5717 5713 5710 5706 5703 5699 5696 5692 5688
5823 5824 5823 5821 5819 5816 5814 5813 5810 5808 5806 5804 5802 5800 5797 5796 5793 5788 5787 5785 5783 5779 5777 5773 5766 5762 5755 5747 5741 5736 5730 5726 5720 5715 5711 5707 5703 5700 5696 5693 5689 5684 5680
5813 5815 5813 5811 5807 5805 5805 5804 5801 5799 5798 5796 5795 5794 5793 5790 5786 5784 5782 5780 5777 5776 5772 5766 5760 5754 5749 5742 5736 5731 5725 5721 5716 5710 5706 5701 5697 5694 5690 5686 5682 5677 5672
5801 5802 5802 5800 5799 5797 5797 5796 5794 5792 5791 5790 5790 5789 5786 5783 5782 5779 5777 5774 5771 5769 5767 5761 5756 5751 5744 5738 5731 5725 5721 5716 5711 5706 5701 5697 5692 5689 5684 5680 5675 5670 5665
5789 5787 5789 5788 5788 5786 5786 5787 5787 5785 5784 5784 5783 5782 5780 5779 5775 5773 5770 5769 5768 5765 5762 5756 5751 5746 5739 5732 5726 5721 5716 5711 5706 5702 5697 5692 5687 5683 5679 5674 5669 5664 5657
5779 5777 5778 5778 5777 5777 5778 5779 5779 5779 5778 5778 5778 5776 5774 5771 5770 5767 5766 5766 5761 5761 5757 5751 5746 5740 5733 5727 5722 5716 5711 5705 5700 5696 5692 5687 5682 5678 5673 5669 5664 5658 5651
5768 5767 5768 5769 5770 5771 5770 5771 5771 5772 5772 5772 5771 5769 5767 5767 5765 5765 5763 5761 5758 5756 5751 5746 5740 5735 5729 5723 5717 5712 5706 5701 5696 5691 5687 5683 5677 5672 5668 5663 5659 5653 5647
5759 5758 5758 5759 5761 5761 5762 5762 5763 5765 5765 5765 5766 5764 5763 5764 5762 5761 5758 5755 5753 5750 5746 5741 5736 5730 5725 5719 5713 5708 5702 5697 5691 5686 5681 5678 5673 5668 5664 5659 5654 5648 5641
5748 5749 5750 5750 5751 5752 5754 5754 5756 5758 5759 5761 5760 5760 5759 5758 5758 5756 5753 5751 5748 5745 5741 5737 5732 5726 5720 5715 5710 5703 5697 5692 5686 5681 5676 5673 5668 5664 5660 5655 5650 5644 5637
5739 5740 5740 5741 5743 5744 5745 5747 5749 5751 5753 5755 5755 5754 5754 5754 5753 5751 5749 5746 5744 5740 5735 5732 5727 5721 5716 5710 5705 5699 5693 5687 5681 5676 5672 5669 5665 5661 5657 5652 5647 5640 5634
5732 5732 5732 5732 5734 5736 5738 5740 5742 5745 5747 5749 5750 5750 5749 5750 5749 5747 5745 5743 5739 5734 5730 5726 5722 5716 5711 5706 5700 5694 5688 5683 5678 5673 5669 5666 5662 5658 5654 5650 5644 5637 5631
5725 5726 5726 5726 5728 5730 5730 5733 5736 5740 5742 5744 5745 5745 5745 5745 5744 5743 5741 5738 5734 5729 5725 5720 5715 5711 5706 5701 5695 5690 5684 5679 5674 5669 5665 5662 5659 5655 5652 5647 5642 5636 5629
Wind_Speed
3 2 2 5 6 8 8 9 9 10 10 11 13 14 15 16 16 16 17 19 21 21 22 23 25 26 28 29 29 32 32 32 32 30 31 31 30 30 30 32 33 35 36
4 4 6 9 9 8 8 11 11 11 12 13 14 15 16 17 19 17 18 21 23 24 27 27 24 20 23 26 28 29 31 31 32 32 33 32 32 33 35 37 38 38 39
8 8 9 10 10 11 13 14 14 13 13 16 16 17 17 18 20 20 21 26 29 33 33 32 29 28 30 24 22 24 26 29 32 33 34 35 37 38 38 37 37 37 38
9 10 10 9 9 11 13 15 16 19 19 20 22 20 22 25 26 26 26 26 29 35 38 34 30 29 28 28 29 30 30 31 33 34 35 36 35 35 37 39 40 40 42
7 9 11 12 13 16 18 21 23 26 27 26 28 28 27 30 31 32 35 35 34 38 39 34 35 34 32 30 30 30 29 30 30 31 32 35 37 39 40 42 45 46 47
11 13 14 16 20 24 28 31 35 39 38 38 37 34 35 34 34 36 37 39 40 44 40 40 40 36 32 28 27 26 26 29 32 34 36 38 40 42 44 45 47 46 46
12 14 18 22 25 29 31 36 39 43 49 52 45 42 37 37 37 40 41 38 34 40 40 42 41 36 30 27 28 29 30 31 33 34 34 35 35 37 37 36 35 35 35
19 20 24 25 29 31 33 38 46 43 41 49 35 34 37 39 36 34 35 37 38 38 45 40 37 35 29 30 31 32 32 33 33 32 33 33 32 33 34 34 33 34 35
24 25 27 31 40 45 44 48 36 35 33 30 31 34 29 33 36 39 32 25 29 41 33 36 36 29 29 31 33 33 34 33 30 30 31 32 33 32 31 30 29 27 29
27 31 37 42 49 57 57 71 61 27 26 23 19 23 30 36 39 44 45 44 46 34 35 34 30 29 30 32 34 36 37 34 29 29 28 25 25 25 23 23 27 28 28
32 34 39 44 44 54 56 61 35 18 22 22 22 25 35 29 31 39 24 22 26 29 33 28 28 29 31 34 37 40 36 30 30 29 26 25 23 22 23 23 25 25 25
42 42 39 36 40 45 48 38 28 21 19 18 22 21 29 23 23 21 21 24 27 31 30 26 27 28 31 34 37 34 27 28 27 25 24 25 26 27 27 27 24 22 25
45 45 50 30 34 35 49 39 26 19 17 22 24 22 21 23 24 24 24 23 26 25 23 23 25 28 30 33 33 27 29 27 25 23 22 23 25 27 26 23 25 24 26
48 51 50 42 40 41 42 31 25 17 22 25 25 24 24 24 23 23 23 22 20 21 22 24 26 29 30 33 27 28 29 28 25 23 22 23 25 22 23 23 24 24 25
53 54 52 34 44 43 40 31 26 22 26 26 27 26 24 21 20 22 23 20 19 19 21 23 25 29 30 31 29 29 29 27 25 22 24 25 22 22 22 22 23 25 27
47 47 41 39 41 40 30 29 26 28 29 27 28 27 25 22 21 24 22 18 17 18 20 23 26 29 30 31 30 30 29 26 24 25 27 24 22 21 21 23 25 27 29
43 47 42 40 36 29 27 27 27 28 27 29 28 25 24 20 23 21 14 15 17 18 20 22 26 29 30 30 31 30 27 26 25 25 25 22 21 20 21 24 28 30 32
40 42 37 31 30 28 27 25 26 25 25 27 25 23 21 21 22 15 13 14 15 16 20 24 28 29 30 30 31 32 30 27 23 25 26 24 22 21 23 27 29 31 33
31 30 28 29 31 26 20 23 25 26 23 25 22 20 19 21 17 14 13 14 14 16 22 26 26 28 29 30 31 31 30 28 26 25 27 26 24 24 25 28 31 31 35
26 30 27 24 25 25 22 23 25 25 24 23 21 17 18 15 14 12 13 13 13 18 23 24 25 28 30 30 30 32 31 29 26 25 26 27 25 25 25 26 27 31 33
27 29 27 25 24 24 24 23 26 24 22 21 18 16 14 14 14 13 13 14 16 20 24 24 26 28 28 30 30 30 30 29 29 25 24 26 27 25 21 22 26 28 30
27 25 26 26 25 24 24 24 24 22 21 19 16 16 15 15 14 14 13 15 18 20 23 23 26 27 29 30 32 31 30 29 29 27 25 25 27 22 19 22 24 30 32
23 21 21 23 23 23 24 24 23 22 20 19 17 16 15 15 15 15 14 17 19 21 22 23 26 29 28 28 31 32 31 30 29 28 23 23 24 18 20 21 25 30 31
20 22 23 22 22 23 23 24 24 22 18 19 17 17 16 15 15 15 16 19 21 23 24 25 28 29 28 29 31 33 33 30 29 24 19 21 18 17 19 21 26 29 28
13 15 18 20 22 23 25 24 23 18 19 20 20 19 15 15 14 14 18 20 22 24 26 27 28 30 29 30 32 33 33 30 27 20 18 17 16 17 17 21 27 28 26
15 16 18 19 23 25 23 20 21 21 21 20 18 17 13 13 13 16 19 21 23 26 27 29 29 29 31 31 31 31 32 29 25 21 19 16 17 17 18 21 25 28 25
Wind_Direction
275 277 312 324 301 282 284 275 278 289 293 292 294 302 306 308 308 310 309 305 302 301 299 299 293 286 285 286 289 286 285 285 286 284 282 280 280 280 278 277 275 276 276
254 266 307 305 299 288 277 272 279 284 287 285 289 294 301 304 306 311 309 309 314 310 306 306 298 297 301 296 290 287 286 284 282 281 283 283 281 280 277 276 274 270 269
273 292 306 295 289 280 271 269 270 270 277 281 284 296 299 299 304 309 309 313 317 320 319 317 312 301 297 299 300 295 289 285 283 282 280 280 280 281 281 279 277 275 273
266 272 278 276 273 272 277 268 269 272 280 281 281 284 289 294 296 297 301 309 316 329 325 317 322 320 310 306 303 305 303 297 291 287 285 285 287 284 280 277 272 267 266
260 257 263 270 275 281 286 288 277 268 266 276 278 283 283 285 291 299 302 306 311 312 326 320 319 322 319 309 306 305 301 299 296 294 292 290 287 284 280 277 274 270 265
266 267 276 292 303 308 308 306 304 302 280 272 271 271 276 282 289 292 294 302 304 308 313 320 322 326 322 318 317 315 311 306 302 299 295 288 284 281 279 276 274 274 273
273 290 300 301 302 300 297 295 293 290 290 290 270 263 270 277 283 289 297 296 300 306 311 316 319 324 317 317 315 312 308 303 298 297 292 286 283 278 277 277 279 279 277
288 286 283 279 276 276 283 290 288 286 289 298 270 261 273 278 287 298 302 302 305 308 308 311 313 314 313 318 316 314 311 308 307 302 292 285 281 281 282 282 281 279 280
281 285 291 302 310 299 287 243 258 265 284 301 288 282 275 269 279 286 301 308 320 316 310 310 313 311 315 319 322 318 317 314 310 305 299 292 291 289 288 287 287 287 286
295 296 298 302 298 284 296 282 293 248 268 284 279 267 266 272 286 291 290 294 299 299 311 313 313 317 321 322 322 320 320 317 310 309 305 298 292 289 287 288 288 288 286
288 289 288 291 300 318 326 316 239 230 256 271 272 274 266 295 309 305 292 297 300 303 318 316 316 320 322 324 325 325 322 314 313 315 313 308 305 304 296 290 289 290 290
273 279 280 286 301 314 320 328 319 264 252 261 275 266 290 291 297 305 301 299 297 306 313 313 317 321 323 326 326 324 318 315 313 309 309 310 309 307 304 303 301 297 295
275 278 275 302 308 317 318 317 315 265 273 281 280 287 286 293 297 295 298 301 303 304 309 313 318 323 327 327 326 325 327 324 317 312 308 309 307 303 302 304 305 305 303
274 280 282 292 298 301 311 313 309 298 270 260 277 284 291 294 295 298 292 304 308 309 312 317 324 327 328 328 328 333 331 327 323 318 316 314 307 302 305 304 303 301 300
268 275 276 287 290 294 303 298 304 284 264 276 282 289 292 294 295 304 297 304 305 305 315 320 326 326 329 333 334 334 332 326 325 321 319 316 309 311 311 310 309 310 309
264 269 277 288 290 292 289 285 288 283 279 283 286 292 296 292 300 311 296 299 300 312 319 323 329 329 331 336 334 332 331 326 327 325 321 316 313 312 314 315 315 314 312
258 268 278 285 288 279 277 283 283 285 283 284 288 293 295 285 305 302 294 300 310 318 323 328 329 331 332 335 334 335 330 325 327 329 325 319 315 313 317 317 317 315 313
271 275 281 279 275 266 273 274 276 282 282 285 286 288 288 290 296 286 294 302 314 323 328 330 329 329 332 334 337 336 330 321 321 328 331 324 315 311 314 317 317 317 317
276 276 269 265 266 268 267 269 273 276 282 285 287 281 287 292 276 284 295 305 315 323 323 329 328 330 334 336 336 335 330 322 319 317 324 326 318 310 312 316 319 320 320
269 265 267 270 268 262 256 263 269 272 282 279 274 282 291 274 277 286 292 300 313 313 324 328 328 331 334 336 335 336 331 328 319 316 318 324 320 313 311 316 320 322 325
270 266 266 268 263 256 254 259 264 269 277 274 271 283 282 276 279 286 295 303 308 315 326 329 335 333 334 336 337 332 333 329 325 314 313 320 323 319 318 320 323 324 327
274 272 266 260 256 255 251 252 255 264 267 266 268 279 271 272 279 286 295 307 309 317 323 330 335 335 334 335 334 333 333 331 327 321 310 316 324 322 322 323 324 328 329
257 253 254 256 254 252 249 249 258 256 257 257 265 272 260 270 277 284 301 306 310 318 323 326 332 332 331 335 334 334 333 331 328 323 313 314 323 322 323 326 327 331 331
267 262 257 253 249 247 246 249 248 248 243 250 260 265 260 272 279 287 303 307 311 322 324 323 325 327 328 331 332 332 333 332 331 328 318 319 322 322 325 331 335 335 337
266 264 261 253 246 245 241 237 236 237 233 246 252 263 257 272 280 299 307 307 316 323 325 325 322 323 325 329 329 331 333 334 334 328 321 325 321 323 330 337 344 342 344
270 263 260 257 256 246 248 229 216 222 229 240 259 263 258 271 290 298 302 312 317 324 328 325 320 320 326 328 327 329 332 334 333 326 319 315 314 317 324 335 342 346 353